| time (UTC) | temp F | wind direction | speed MPH | gust MPH | rain 1hr in | rain 24hr in | rain mn in | humidity % | barometer mb |
| 20260503204724 | 65 | 181 | 1.0 | 1.0 | 0.00 | 0.00 | 0.00 | 51 | 1006.5 |
| 20260503204223 | 65 | 181 | 0.0 | 1.0 | 0.00 | 0.00 | 0.00 | 52 | 1006.5 |
| 20260503203720 | 65 | 181 | 0.0 | 1.0 | 0.00 | 0.00 | 0.00 | 51 | 1006.7 |
| 20260503203217 | 64 | 181 | 1.0 | 2.0 | 0.00 | 0.00 | 0.00 | 53 | 1006.7 |
| 20260503202714 | 64 | 181 | 2.0 | 2.0 | 0.00 | 0.00 | 0.00 | 53 | 1007.0 |
| 20260503202212 | 64 | 181 | 0.0 | 1.0 | 0.00 | 0.00 | 0.00 | 52 | 1006.9 |
| 20260503201710 | 64 | 181 | 1.0 | 1.0 | 0.00 | 0.00 | 0.00 | 52 | 1007.1 |
| 20260503201207 | 64 | 181 | 1.0 | 1.0 | 0.00 | 0.00 | 0.00 | 53 | 1007.2 |
| 20260503200703 | 63 | 181 | 0.0 | 1.0 | 0.00 | 0.00 | 0.00 | 53 | 1007.3 |
| 20260503200159 | 63 | 181 | 0.0 | 1.0 | 0.00 | 0.00 | 0.00 | 52 | 1007.4 |
| 20260503195656 | 63 | 181 | 0.0 | 0.0 | 0.00 | 0.00 | 0.00 | 51 | 1007.7 |
| 20260503195153 | 63 | 181 | 0.0 | 1.0 | 0.00 | 0.00 | 0.00 | 51 | 1007.5 |
| 20260503194650 | 64 | 181 | 0.0 | 0.0 | 0.00 | 0.00 | 0.00 | 48 | 1007.4 |
| 20260503194146 | 64 | 181 | 2.0 | 3.0 | 0.00 | 0.00 | 0.00 | 49 | 1007.5 |
| 20260503193643 | 64 | 181 | 2.0 | 2.0 | 0.00 | 0.00 | 0.00 | 48 | 1007.4 |
| 20260503193138 | 65 | 181 | 2.0 | 4.0 | 0.00 | 0.00 | 0.00 | 45 | 1007.4 |
| 20260503192634 | 65 | 181 | 1.0 | 2.0 | 0.00 | 0.00 | 0.00 | 47 | 1007.7 |
| 20260503192130 | 66 | 181 | 1.0 | 2.0 | 0.00 | 0.00 | 0.00 | 46 | 1007.6 |
| 20260503191627 | 65 | 181 | 1.0 | 1.0 | 0.00 | 0.00 | 0.00 | 49 | 1007.4 |
| 20260503191124 | 65 | 181 | 1.0 | 1.0 | 0.00 | 0.00 | 0.00 | 48 | 1007.7 |
| 20260503190621 | 64 | 181 | 2.0 | 2.0 | 0.00 | 0.00 | 0.00 | 47 | 1007.6 |
| 20260503190118 | 64 | 181 | 1.0 | 2.0 | 0.00 | 0.00 | 0.00 | 47 | 1008.0 |
| 20260503185614 | 64 | 181 | 2.0 | 2.0 | 0.00 | 0.00 | 0.00 | 49 | 1007.7 |
| 20260503185114 | 64 | 181 | 2.0 | 2.0 | 0.00 | 0.00 | 0.00 | 47 | 1007.9 |
| 20260503184609 | 64 | 181 | 1.0 | 2.0 | 0.00 | 0.00 | 0.00 | 49 | 1008.0 |
| 20260503184106 | 64 | 181 | 1.0 | 1.0 | 0.00 | 0.00 | 0.00 | 49 | 1008.0 |
| 20260503183603 | 64 | 181 | 1.0 | 2.0 | 0.00 | 0.00 | 0.00 | 49 | 1008.2 |
| 20260503183100 | 64 | 181 | 0.0 | 0.0 | 0.00 | 0.00 | 0.00 | 51 | 1008.1 |
| 20260503182558 | 63 | 181 | 1.0 | 1.0 | 0.00 | 0.00 | 0.00 | 53 | 1008.3 |
| 20260503182056 | 63 | 181 | 1.0 | 2.0 | 0.00 | 0.00 | 0.00 | 52 | 1008.5 |
| 20260503181553 | 63 | 181 | 1.0 | 2.0 | 0.00 | 0.00 | 0.00 | 56 | 1008.7 |
| 20260503181049 | 63 | 181 | 1.0 | 2.0 | 0.00 | 0.00 | 0.00 | 51 | 1008.6 |
| 20260503180546 | 63 | 181 | 1.0 | 1.0 | 0.00 | 0.00 | 0.00 | 52 | 1008.7 |
| 20260503180044 | 62 | 181 | 1.0 | 2.0 | 0.00 | 0.00 | 0.00 | 54 | 1008.7 |
| 20260503175542 | 62 | 181 | 1.0 | 2.0 | 0.00 | 0.00 | 0.00 | 53 | 1008.8 |
| 20260503175039 | 62 | 181 | 0.0 | 1.0 | 0.00 | 0.00 | 0.00 | 55 | 1008.9 |
| 20260503174536 | 62 | 181 | 1.0 | 2.0 | 0.00 | 0.00 | 0.00 | 56 | 1009.0 |
| 20260503174032 | 61 | 181 | 1.0 | 1.0 | 0.00 | 0.00 | 0.00 | 54 | 1009.1 |
| 20260503173527 | 61 | 181 | 0.0 | 0.0 | 0.00 | 0.00 | 0.00 | 57 | 1009.4 |
| 20260503173023 | 61 | 181 | 1.0 | 2.0 | 0.00 | 0.00 | 0.00 | 54 | 1009.5 |
| 20260503172521 | 61 | 181 | 1.0 | 1.0 | 0.00 | 0.00 | 0.00 | 53 | 1009.6 |
| 20260503172018 | 60 | 181 | 1.0 | 2.0 | 0.00 | 0.00 | 0.00 | 55 | 1009.6 |
| 20260503171514 | 59 | 181 | 1.0 | 1.0 | 0.00 | 0.00 | 0.00 | 60 | 1009.9 |
| 20260503171012 | 59 | 181 | 0.0 | 0.0 | 0.00 | 0.00 | 0.00 | 55 | 1009.9 |
| 20260503170508 | 60 | 181 | 1.0 | 2.0 | 0.00 | 0.00 | 0.00 | 56 | 1010.0 |
| 20260503150855 | 58 | 181 | 1.0 | 1.0 | 0.00 | 0.00 | 0.00 | 54 | 1011.1 |
| 20260503150351 | 59 | 181 | 2.0 | 2.0 | 0.00 | 0.00 | 0.00 | 53 | 1011.2 |
| 20260503140315 | 60 | 180 | 0.0 | 1.0 | 0.00 | 0.00 | 0.00 | 50 | 1011.7 |
| 20260503131244 | 56 | 181 | 1.0 | 1.0 | 0.00 | 0.00 | 0.00 | 53 | 1012.5 |
| 20260503130742 | 53 | 181 | 0.0 | 1.0 | 0.00 | 0.00 | 0.00 | 56 | 1012.3 |
| 20260503130239 | 53 | 181 | 0.0 | 0.0 | 0.00 | 0.00 | 0.00 | 56 | 1012.3 |
| 20260503120206 | 50 | 181 | 0.0 | 0.0 | 0.00 | 0.00 | 0.00 | 54 | 1012.2 |
| 20260503110632 | 49 | 182 | 1.0 | 1.0 | 0.00 | 0.00 | 0.00 | 55 | 1012.1 |
| 20260503110129 | 49 | 182 | 0.0 | 0.0 | 0.00 | 0.00 | 0.00 | 55 | 1012.2 |
| 20260503081433 | 46 | 181 | 0.0 | 0.0 | 0.00 | 0.00 | 0.00 | 59 | 1013.4 |
| 20260503080931 | 46 | 181 | 0.0 | 0.0 | 0.00 | 0.00 | 0.00 | 59 | 1013.3 |
| 20260503080427 | 46 | 181 | 0.0 | 0.0 | 0.00 | 0.00 | 0.00 | 60 | 1013.5 |
| 20260503072904 | 46 | 181 | 0.0 | 0.0 | 0.00 | 0.00 | 0.00 | 59 | 1013.6 |
| 20260503072400 | 46 | 181 | 0.0 | 0.0 | 0.00 | 0.00 | 0.00 | 60 | 1013.7 |
| 20260503071857 | 45 | 181 | 0.0 | 0.0 | 0.00 | 0.00 | 0.00 | 61 | 1013.8 |
| 20260503071355 | 45 | 181 | 0.0 | 0.0 | 0.00 | 0.00 | 0.00 | 61 | 1013.8 |
| 20260503070850 | 45 | 181 | 0.0 | 0.0 | 0.00 | 0.00 | 0.00 | 61 | 1013.7 |
| 20260503070349 | 45 | 181 | 0.0 | 0.0 | 0.00 | 0.00 | 0.00 | 61 | 1013.8 |
| 20260503060314 | 45 | 181 | 0.0 | 0.0 | 0.00 | 0.00 | 0.00 | 61 | 1014.2 |
| 20260503054802 | 45 | 181 | 0.0 | 0.0 | 0.00 | 0.00 | 0.00 | 61 | 1014.5 |
| 20260503054258 | 45 | 181 | 0.0 | 0.0 | 0.00 | 0.00 | 0.00 | 60 | 1014.3 |
| 20260503053756 | 45 | 181 | 0.0 | 0.0 | 0.00 | 0.00 | 0.00 | 61 | 1014.4 |
| 20260503053255 | 45 | 181 | 0.0 | 0.0 | 0.00 | 0.00 | 0.00 | 61 | 1014.5 |
| 20260503052750 | 45 | 181 | 0.0 | 0.0 | 0.00 | 0.00 | 0.00 | 60 | 1014.6 |
| 20260503052248 | 45 | 181 | 0.0 | 0.0 | 0.00 | 0.00 | 0.00 | 60 | 1014.6 |
| 20260503051742 | 45 | 181 | 0.0 | 0.0 | 0.00 | 0.00 | 0.00 | 59 | 1014.5 |
| 20260503051240 | 46 | 181 | 0.0 | 0.0 | 0.00 | 0.00 | 0.00 | 59 | 1014.6 |
| 20260503050736 | 46 | 181 | 0.0 | 0.0 | 0.00 | 0.00 | 0.00 | 59 | 1014.6 |
| 20260503050232 | 46 | 181 | 0.0 | 0.0 | 0.00 | 0.00 | 0.00 | 59 | 1014.6 |
| 20260503045730 | 46 | 181 | 0.0 | 0.0 | 0.00 | 0.00 | 0.00 | 59 | 1014.7 |
| 20260503045228 | 46 | 181 | 0.0 | 0.0 | 0.00 | 0.00 | 0.00 | 59 | 1014.5 |
| 20260503044724 | 46 | 181 | 0.0 | 0.0 | 0.00 | 0.00 | 0.00 | 60 | 1014.7 |
| 20260503044221 | 46 | 181 | 0.0 | 0.0 | 0.00 | 0.00 | 0.00 | 59 | 1014.7 |
| 20260503043718 | 46 | 181 | 0.0 | 0.0 | 0.00 | 0.00 | 0.00 | 59 | 1014.6 |
| 20260503043216 | 46 | 181 | 0.0 | 0.0 | 0.00 | 0.00 | 0.00 | 59 | 1014.8 |
| 20260503042711 | 46 | 181 | 0.0 | 0.0 | 0.00 | 0.00 | 0.00 | 60 | 1014.6 |
| 20260503042208 | 46 | 181 | 0.0 | 0.0 | 0.00 | 0.00 | 0.00 | 60 | 1014.8 |
| 20260503041704 | 46 | 181 | 0.0 | 0.0 | 0.00 | 0.00 | 0.00 | 60 | 1014.7 |
| 20260503041202 | 46 | 181 | 0.0 | 0.0 | 0.00 | 0.00 | 0.00 | 60 | 1014.9 |
| 20260503040659 | 46 | 181 | 0.0 | 0.0 | 0.00 | 0.00 | 0.00 | 60 | 1014.9 |
| 20260503040157 | 46 | 181 | 0.0 | 0.0 | 0.00 | 0.00 | 0.00 | 60 | 1015.0 |
| 20260503035653 | 46 | 181 | 0.0 | 0.0 | 0.00 | 0.00 | 0.00 | 60 | 1015.1 |
| 20260503035151 | 46 | 181 | 0.0 | 0.0 | 0.00 | 0.00 | 0.00 | 59 | 1015.0 |
| 20260503034648 | 46 | 181 | 0.0 | 0.0 | 0.00 | 0.00 | 0.00 | 60 | 1014.9 |
| 20260503034145 | 46 | 181 | 0.0 | 0.0 | 0.00 | 0.00 | 0.00 | 60 | 1015.2 |
| 20260503033642 | 45 | 181 | 0.0 | 0.0 | 0.00 | 0.00 | 0.00 | 61 | 1015.3 |
| 20260503033140 | 45 | 181 | 0.0 | 0.0 | 0.00 | 0.00 | 0.00 | 62 | 1015.0 |
| 20260503032638 | 45 | 181 | 0.0 | 0.0 | 0.00 | 0.00 | 0.00 | 63 | 1015.2 |
| 20260503032136 | 45 | 181 | 0.0 | 0.0 | 0.00 | 0.00 | 0.00 | 63 | 1015.3 |
| 20260503031628 | 45 | 181 | 0.0 | 0.0 | 0.00 | 0.00 | 0.00 | 64 | 1015.3 |
| 20260503031126 | 45 | 181 | 0.0 | 0.0 | 0.00 | 0.00 | 0.00 | 65 | 1015.2 |
| 20260503030621 | 45 | 181 | 0.0 | 0.0 | 0.00 | 0.00 | 0.00 | 65 | 1015.4 |
| 20260503030118 | 45 | 181 | 0.0 | 0.0 | 0.00 | 0.00 | 0.00 | 64 | 1015.3 |
| 20260503025614 | 45 | 181 | 0.0 | 0.0 | 0.00 | 0.00 | 0.00 | 65 | 1015.6 |
| 20260503025112 | 45 | 181 | 0.0 | 0.0 | 0.00 | 0.00 | 0.00 | 65 | 1015.4 |
| 20260503024608 | 45 | 181 | 0.0 | 0.0 | 0.00 | 0.00 | 0.00 | 64 | 1015.5 |
| 20260503024100 | 45 | 181 | 0.0 | 0.0 | 0.00 | 0.00 | 0.00 | 65 | 1015.7 |
| 20260503023557 | 45 | 181 | 0.0 | 0.0 | 0.00 | 0.00 | 0.00 | 65 | 1015.6 |
| 20260503023054 | 45 | 181 | 0.0 | 0.0 | 0.00 | 0.00 | 0.00 | 65 | 1015.4 |
| 20260503022550 | 46 | 181 | 0.0 | 0.0 | 0.00 | 0.00 | 0.00 | 65 | 1015.5 |
| 20260503022045 | 46 | 181 | 0.0 | 0.0 | 0.00 | 0.00 | 0.00 | 63 | 1015.6 |
| 20260503021542 | 46 | 181 | 0.0 | 0.0 | 0.00 | 0.00 | 0.00 | 63 | 1015.6 |
| 20260503021039 | 46 | 181 | 0.0 | 0.0 | 0.00 | 0.00 | 0.00 | 63 | 1015.5 |
| 20260503020536 | 46 | 181 | 0.0 | 0.0 | 0.00 | 0.00 | 0.00 | 62 | 1015.5 |
| 20260503020033 | 46 | 181 | 0.0 | 0.0 | 0.00 | 0.00 | 0.00 | 62 | 1015.3 |
| 20260503015530 | 47 | 181 | 0.0 | 0.0 | 0.00 | 0.00 | 0.00 | 61 | 1015.5 |
| 20260503015027 | 47 | 181 | 0.0 | 0.0 | 0.00 | 0.00 | 0.00 | 61 | 1015.5 |
| 20260503014523 | 47 | 181 | 0.0 | 0.0 | 0.00 | 0.00 | 0.00 | 61 | 1015.5 |
| 20260503014021 | 47 | 181 | 0.0 | 0.0 | 0.00 | 0.00 | 0.00 | 60 | 1015.4 |
| 20260503013518 | 47 | 181 | 0.0 | 0.0 | 0.00 | 0.00 | 0.00 | 59 | 1015.2 |
| 20260503013015 | 48 | 181 | 0.0 | 0.0 | 0.00 | 0.00 | 0.00 | 59 | 1015.3 |
| 20260503012513 | 48 | 181 | 0.0 | 0.0 | 0.00 | 0.00 | 0.00 | 58 | 1015.2 |
| 20260503012009 | 48 | 181 | 0.0 | 0.0 | 0.00 | 0.00 | 0.00 | 58 | 1015.1 |
| 20260503011506 | 48 | 181 | 0.0 | 0.0 | 0.00 | 0.00 | 0.00 | 57 | 1015.0 |
| 20260503011003 | 49 | 181 | 0.0 | 0.0 | 0.00 | 0.00 | 0.00 | 57 | 1015.1 |
| 20260503010459 | 49 | 181 | 0.0 | 0.0 | 0.00 | 0.00 | 0.00 | 56 | 1015.4 |
| 20260503005956 | 50 | 181 | 0.0 | 0.0 | 0.00 | 0.00 | 0.00 | 55 | 1015.3 |
| 20260503005453 | 50 | 181 | 0.0 | 0.0 | 0.00 | 0.00 | 0.00 | 54 | 1015.3 |
| 20260503004950 | 51 | 181 | 0.0 | 0.0 | 0.00 | 0.00 | 0.00 | 55 | 1015.2 |
| 20260503004446 | 51 | 181 | 0.0 | 0.0 | 0.00 | 0.00 | 0.00 | 52 | 1015.2 |
| 20260503003945 | 52 | 181 | 0.0 | 0.0 | 0.00 | 0.00 | 0.00 | 50 | 1015.3 |
| 20260503003441 | 53 | 181 | 0.0 | 0.0 | 0.00 | 0.00 | 0.00 | 48 | 1015.1 |
| 20260503002938 | 54 | 181 | 0.0 | 0.0 | 0.00 | 0.00 | 0.00 | 47 | 1015.1 |
| 20260503002435 | 54 | 181 | 0.0 | 0.0 | 0.00 | 0.00 | 0.00 | 45 | 1015.3 |
| 20260503001931 | 55 | 181 | 0.0 | 0.0 | 0.00 | 0.00 | 0.00 | 41 | 1015.3 |
| 20260503001428 | 55 | 181 | 0.0 | 0.0 | 0.00 | 0.00 | 0.00 | 41 | 1015.2 |
| 20260503000926 | 55 | 181 | 0.0 | 0.0 | 0.00 | 0.00 | 0.00 | 42 | 1015.2 |
| 20260503000422 | 55 | 181 | 0.0 | 0.0 | 0.00 | 0.00 | 0.00 | 40 | 1015.3 |
| 20260502235920 | 56 | 181 | 0.0 | 0.0 | 0.00 | 0.00 | 0.00 | 41 | 1015.4 |
| 20260502235417 | 56 | 181 | 0.0 | 0.0 | 0.00 | 0.00 | 0.00 | 41 | 1015.2 |
| 20260502234915 | 56 | 181 | 0.0 | 0.0 | 0.00 | 0.00 | 0.00 | 42 | 1015.4 |
| 20260502234411 | 56 | 181 | 0.0 | 1.0 | 0.00 | 0.00 | 0.00 | 43 | 1015.5 |
| 20260502233908 | 56 | 181 | 0.0 | 0.0 | 0.00 | 0.00 | 0.00 | 43 | 1015.7 |
| 20260502233403 | 56 | 181 | 0.0 | 0.0 | 0.00 | 0.00 | 0.00 | 39 | 1015.6 |
| 20260502232901 | 56 | 181 | 0.0 | 0.0 | 0.00 | 0.00 | 0.00 | 42 | 1015.7 |
| 20260502232357 | 56 | 181 | 0.0 | 0.0 | 0.00 | 0.00 | 0.00 | 41 | 1015.6 |
| 20260502231854 | 56 | 181 | 0.0 | 1.0 | 0.00 | 0.00 | 0.00 | 41 | 1015.5 |
| 20260502231352 | 56 | 181 | 0.0 | 0.0 | 0.00 | 0.00 | 0.00 | 39 | 1015.8 |
| 20260502230850 | 56 | 181 | 0.0 | 0.0 | 0.00 | 0.00 | 0.00 | 40 | 1015.7 |
| 20260502230347 | 56 | 181 | 0.0 | 0.0 | 0.00 | 0.00 | 0.00 | 41 | 1015.7 |
| 20260502225843 | 56 | 181 | 0.0 | 0.0 | 0.00 | 0.00 | 0.00 | 42 | 1016.0 |
| 20260502225335 | 56 | 181 | 0.0 | 0.0 | 0.00 | 0.00 | 0.00 | 42 | 1015.8 |
| 20260502224832 | 56 | 181 | 0.0 | 0.0 | 0.00 | 0.00 | 0.00 | 42 | 1016.1 |
| 20260502224327 | 56 | 181 | 1.0 | 1.0 | 0.00 | 0.00 | 0.00 | 42 | 1016.2 |
| 20260502223825 | 56 | 181 | 0.0 | 0.0 | 0.00 | 0.00 | 0.00 | 42 | 1016.2 |
| 20260502223323 | 57 | 181 | 0.0 | 0.0 | 0.00 | 0.00 | 0.00 | 40 | 1016.2 |
| 20260502222815 | 57 | 181 | 0.0 | 0.0 | 0.00 | 0.00 | 0.00 | 40 | 1016.1 |
| 20260502222312 | 56 | 181 | 0.0 | 0.0 | 0.00 | 0.00 | 0.00 | 43 | 1016.1 |
| 20260502221808 | 56 | 181 | 1.0 | 2.0 | 0.00 | 0.00 | 0.00 | 38 | 1016.3 |
| 20260502221304 | 56 | 181 | 0.0 | 1.0 | 0.00 | 0.00 | 0.00 | 40 | 1016.3 |
| 20260502220801 | 57 | 181 | 0.0 | 0.0 | 0.00 | 0.00 | 0.00 | 38 | 1016.4 |
| 20260502220256 | 58 | 181 | 0.0 | 0.0 | 0.00 | 0.00 | 0.00 | 40 | 1016.4 |
| 20260502215753 | 58 | 181 | 0.0 | 0.0 | 0.00 | 0.00 | 0.00 | 39 | 1016.4 |
| 20260502215250 | 57 | 181 | 0.0 | 0.0 | 0.00 | 0.00 | 0.00 | 41 | 1016.5 |
| 20260502214747 | 57 | 181 | 0.0 | 0.0 | 0.00 | 0.00 | 0.00 | 40 | 1016.4 |
| 20260502214244 | 57 | 181 | 0.0 | 0.0 | 0.00 | 0.00 | 0.00 | 39 | 1016.4 |
| 20260502213742 | 57 | 181 | 0.0 | 0.0 | 0.00 | 0.00 | 0.00 | 36 | 1016.4 |
| 20260502213239 | 58 | 181 | 0.0 | 1.0 | 0.00 | 0.00 | 0.00 | 35 | 1016.6 |
| 20260502212738 | 58 | 181 | 0.0 | 0.0 | 0.00 | 0.00 | 0.00 | 37 | 1016.6 |
| 20260502212235 | 58 | 181 | 0.0 | 0.0 | 0.00 | 0.00 | 0.00 | 40 | 1016.6 |
| 20260502211731 | 58 | 181 | 0.0 | 0.0 | 0.00 | 0.00 | 0.00 | 37 | 1016.6 |
| 20260502211228 | 59 | 181 | 0.0 | 0.0 | 0.00 | 0.00 | 0.00 | 41 | 1016.6 |
| 20260502210725 | 59 | 181 | 0.0 | 0.0 | 0.00 | 0.00 | 0.00 | 40 | 1016.6 |
| 20260502210222 | 59 | 181 | 0.0 | 0.0 | 0.00 | 0.00 | 0.00 | 39 | 1017.0 |
| 20260502205720 | 58 | 181 | 0.0 | 0.0 | 0.00 | 0.00 | 0.00 | 39 | 1016.9 |
| 20260502205216 | 58 | 181 | 0.0 | 0.0 | 0.00 | 0.00 | 0.00 | 39 | 1016.9 |